AB9HP Weather Reports


time (UTC)temp
F
wind
direction
speed
knots
gust
knots
rain 1hr
in
rain 24hr
in
rain mn
in
humidity
%
barometer
mb
20260509013100 54 201 2.6 7.0 0.00 0.32 0.26 91 1009.1
20260509011557 54 200 2.6 7.8 0.00 0.32 0.26 90 1009.2
20260509004600 55 231 2.6 7.0 0.00 0.32 0.26 90 1009.1
20260509003049 55 216 0.9 5.2 0.00 0.32 0.26 90 1009.1
20260509001546 55 221 1.7 7.0 0.00 0.32 0.26 90 1009.0
20260508234550 55 210 1.7 6.1 0.00 0.32 0.26 90 1009.2
20260508233042 55 204 0.9 4.3 0.00 0.32 0.26 90 1009.2
20260508231540 55 207 0.0 3.5 0.01 0.32 0.26 90 1009.3
20260508224537 55 249 0.9 7.0 0.02 0.32 0.26 89 1009.3
20260508223040 55 190 0.9 7.0 0.03 0.32 0.26 90 1009.6
20260508221533 55 219 0.9 4.3 0.05 0.31 0.25 91 1009.5
20260508214528 55 199 0.0 2.6 0.10 0.30 0.24 91 1009.6
20260508213027 55 216 0.0 3.5 0.13 0.30 0.24 90 1009.8
20260508211521 55 236 0.0 2.6 0.12 0.27 0.21 89 1010.1
20260508204536 55 238 0.0 1.7 0.08 0.20 0.14 88 1010.2
20260508203038 56 231 0.0 4.3 0.06 0.18 0.12 87 1010.3
20260508201533 56 247 0.0 7.8 0.06 0.16 0.10 86 1010.4
20260508194509 58 249 0.0 9.6 0.02 0.12 0.06 80 1010.6
20260508193007 59 291 2.6 12.2 0.02 0.12 0.06 78 1010.7
20260508191506 60 232 0.9 7.0 0.00 0.10 0.04 72 1010.6
20260508184559 60 236 0.0 0.0 0.00 0.10 0.04 71 1010.7
20260508183055 61 255 0.0 0.0 0.00 0.10 0.04 69 1010.8
20260508181557 61 250 0.9 6.1 0.00 0.10 0.04 66 1010.9
20260508174554 60 248 0.0 3.5 0.00 0.10 0.04 65 1011.2
20260508173044 60 224 0.9 5.2 0.00 0.10 0.04 65 1011.6
20260508171537 60 203 0.9 4.3 0.00 0.10 0.04 66 1011.8
20260508164531 59 224 2.6 7.8 0.00 0.10 0.04 67 1012.4
20260508163029 59 144 1.7 7.8 0.00 0.10 0.04 66 1012.4
20260508161525 59 98 1.7 6.1 0.00 0.10 0.04 69 1012.5
20260508154519 56 248 0.0 5.2 0.01 0.10 0.04 73 1013.1
20260508153015 55 61 0.0 0.0 0.01 0.10 0.04 77 1013.2
20260508151521 53 238 0.0 0.9 0.04 0.10 0.04 81 1013.2
20260508144502 50 233 0.0 0.0 0.04 0.10 0.04 84 1013.6
20260508143001 51 233 0.0 0.0 0.03 0.09 0.03 83 1014.0
20260508141616 51 268 0.0 0.0 0.01 0.07 0.01 81 1014.0
20260508134608 51 278 0.0 0.0 0.00 0.06 0.00 81 1013.3
20260508133052 51 236 0.0 0.0 0.00 0.06 0.00 81 1013.2
20260508131550 51 243 0.0 6.1 0.00 0.06 0.00 80 1013.5
20260508130147 52 244 0.9 7.0 0.00 0.06 0.00 78 1013.4
20260508124557 52 234 3.5 8.7 0.00 0.06 0.00 77 1013.6
20260508123050 52 248 0.9 5.2 0.00 0.06 0.00 76 1013.4
20260508121544 52 231 2.6 8.7 0.00 0.06 0.00 75 1013.3
20260508114539 52 222 0.0 6.1 0.00 0.06 0.00 74 1013.1
20260508113047 51 268 0.0 1.7 0.00 0.06 0.00 75 1012.9
20260508111529 51 174 0.0 3.5 0.00 0.06 0.00 76 1012.9
20260508110129 50 246 0.0 0.0 0.00 0.06 0.00 76 1012.9
20260508104536 50 239 0.0 1.7 0.00 0.06 0.00 77 1012.8
20260508103036 49 219 0.0 4.3 0.00 0.06 0.00 77 1012.7
20260508101532 49 158 0.0 2.6 0.00 0.06 0.00 78 1012.8
20260508100130 49 244 0.0 4.3 0.00 0.06 0.00 77 1013.0
20260508094513 49 200 0.0 0.9 0.00 0.06 0.00 77 1013.0
20260508093015 49 245 0.0 5.2 0.00 0.06 0.00 76 1012.9
20260508091514 49 259 0.0 3.5 0.00 0.06 0.00 75 1013.0
20260508084510 49 241 0.9 5.2 0.00 0.06 0.00 75 1012.9
20260508083009 49 199 0.0 9.6 0.00 0.06 0.00 75 1013.0
20260508081509 49 245 0.0 5.2 0.00 0.06 0.00 76 1012.9
20260508074601 47 233 0.0 5.2 0.00 0.06 0.00 79 1012.9
20260508073156 47 178 0.0 5.2 0.00 0.06 0.00 79 1012.9
20260508071554 47 208 0.0 6.1 0.00 0.06 0.00 80 1013.1
20260508070151 47 191 0.0 4.3 0.00 0.06 0.00 81 1013.1
20260508064549 47 202 0.0 3.5 0.00 0.06 0.00 82 1013.2
20260508063048 46 226 0.0 3.5 0.00 0.06 0.00 83 1013.3
20260508061544 46 183 0.0 0.0 0.00 0.06 0.00 83 1013.4
20260508060141 46 187 0.0 0.0 0.00 0.06 0.00 85 1013.6
20260508054509 46 205 0.0 0.0 0.00 0.06 0.00 86 1013.7
20260508053006 46 186 0.0 0.0 0.00 0.06 0.00 85 1013.7
20260508051503 46 196 0.0 0.0 0.00 0.06 0.00 85 1013.7
20260508050105 47 164 0.0 0.0 0.00 0.06 0.00 85 1013.7
20260508044530 47 214 0.0 0.0 0.00 0.06 0.00 85 1013.8
20260508043027 47 167 0.0 0.0 0.00 0.06 0.00 84 1013.9
20260508041522 48 158 0.0 0.0 0.00 0.06 0.00 84 1014.0
20260508040119 48 211 0.0 0.0 0.06 0.06 0.00 84 1013.9
20260508034517 49 229 0.0 0.0 0.06 0.06 0.06 83 1014.0
20260508033016 49 248 0.0 0.0 0.06 0.06 0.06 83 1014.2
20260508031514 49 238 0.0 4.3 0.06 0.06 0.06 81 1014.0
20260508030110 51 273 0.0 2.6 0.00 0.00 0.00 75 1014.6
20260508024510 51 134 0.0 4.3 0.00 0.00 0.00 75 1013.5
20260508023008 50 220 0.0 4.3 0.00 0.00 0.00 75 1013.4
20260508021515 50 188 0.0 5.2 0.00 0.00 0.00 76 1013.2
20260508020003 50 126 0.0 2.6 0.00 0.00 0.00 74 1013.2
20260508014502 51 207 0.0 0.9 0.00 0.00 0.00 73 1013.3